Погода в Винковцах

Хорватия     45°17′31″N   18°47′27″E
темп.,
°C
ветер,
м/с
пор.,
м/с
влажн.,
%
обл.,
%
осадки,
мм/ч
давл.,
гПа
погр.,
м
17 августа, ср
ср1723:00+21зюз48610 0.0 1011130
02:00+19зюз35690 0.0 101192
05:00+18зюз36750 0.0 101196
08:00+23з45600 0.0 1012241
11:00+31з34370 0.0 10121333
14:00+34зюз22260 0.0 10112722
17:00+35юз33230 0.0 10103037
20:00+28зюз22340 0.0 101018
18 августа, чт
чт1823:00+25ююз33400 0.0 101122
02:00+23зюз46465 0.0 101175
05:00+22зюз33520 0.0 101038
08:00+26юз34420 0.0 1011185
11:00+34ююз33270 0.0 1011861
14:00+38зюз36203 0.0 10092661
17:00+40зсз56165 0.0 10073120
20:00+32ссз33264 0.0 100728
19 августа, пт
пт1923:00+27ссз223561 0.0 100813
02:00+25зсз11410 0.0 100811
05:00+23с11470 0.0 100711
08:00+28зсз223876 0.0 1008179
11:00+34сз212695 0.0 1008748
14:00+39всв331976 0.0 10051403
17:00+23ссз6127956 0.6 1005197
20:00+21сз33855 0.9 100837
20 августа, сб
сб2023:00+21вюв4108847 0.9 1010196
02:00+20зсз22905 1.3 101023
05:00+19ссз3393100 0.0 101058
08:00+21сз348495 0.0 1012246
11:00+27ссз2253100 0.0 10121108
14:00+31сз333819 0.0 10111659
17:00+33сз543150 0.0 10092518
20:00+25ссз7135665 0.3 1011602
21 августа, вс
вс2123:00+19з2286100 0.9 101420
02:00+18зсз478610 1.2 1014147
05:00+16зсз498915 0.0 1013189
08:00+20зсз487591 0.0 1014502
11:00+23сз3563100 0.0 10141324
14:00+23сз2463100 0.1 10131080
17:00+25с2357100 0.1 10121183
20:00+23вюв116698 0.1 101111